Total_Precipitation_Accumulation
0.72 0.78 0.85 0.90 0.95 1.01 1.06 1.05 1.00 0.94 0.91 0.92 0.90 0.85 0.83 0.86 0.92 0.95 0.93 1.05 1.18 1.22 1.07 0.96 0.90 0.86 0.87 0.76 0.75 0.79 0.83 0.96 1.05 0.92 0.89 0.99 1.03 0.97 0.96 0.91 0.84 0.83 0.76
0.63 0.77 0.81 0.90 0.95 0.94 0.96 1.12 1.13 1.08 1.05 1.05 1.03 1.01 0.94 0.88 0.92 0.90 0.84 0.89 1.06 1.25 1.41 1.43 1.25 1.12 1.08 0.96 0.95 0.93 0.92 0.98 1.06 1.10 1.07 1.10 1.10 1.09 1.06 0.90 0.74 0.69 0.72
0.54 0.67 0.77 0.86 0.95 1.00 1.05 1.17 1.26 1.25 1.25 1.27 1.27 1.21 1.15 1.12 1.08 1.04 0.98 0.95 0.99 1.08 1.27 1.45 1.44 1.44 1.27 1.19 1.12 1.04 0.99 0.94 1.00 1.04 1.06 1.20 1.26 1.24 1.07 0.81 0.70 0.72 0.65
0.66 0.78 0.85 0.99 1.11 1.17 1.14 1.22 1.29 1.36 1.41 1.44 1.45 1.38 1.30 1.26 1.25 1.23 1.19 1.17 1.16 1.15 1.15 1.19 1.27 1.43 1.36 1.29 1.23 1.16 1.13 1.12 1.11 1.09 1.12 1.26 1.43 1.46 1.22 0.91 0.78 0.74 0.70
0.93 1.00 1.01 1.08 1.16 1.24 1.34 1.42 1.52 1.58 1.60 1.69 1.63 1.54 1.48 1.45 1.35 1.41 1.51 1.49 1.49 1.35 1.22 1.14 1.11 1.24 1.32 1.32 1.20 1.15 1.20 1.22 1.19 1.15 1.19 1.33 1.46 1.54 1.29 1.03 0.87 0.80 0.75
1.33 1.40 1.46 1.51 1.52 1.57 1.61 1.66 1.77 1.81 1.82 1.76 1.70 1.69 1.65 1.50 1.60 1.61 1.51 1.51 1.63 1.61 1.47 1.37 1.23 1.14 1.14 1.19 1.23 1.26 1.24 1.22 1.24 1.26 1.28 1.35 1.44 1.48 1.51 1.33 1.10 0.89 0.77
1.40 1.40 1.44 1.53 1.59 1.62 1.66 1.71 1.73 1.75 1.74 1.68 1.71 1.75 1.72 1.73 1.66 1.45 1.31 1.27 1.33 1.41 1.45 1.41 1.21 1.10 1.13 1.09 1.21 1.26 1.19 1.12 1.07 1.13 1.18 1.26 1.53 1.70 1.81 1.54 1.29 1.10 0.90
1.32 1.31 1.28 1.31 1.34 1.40 1.51 1.56 1.55 1.56 1.54 1.52 1.52 1.45 1.41 1.38 1.36 1.19 1.12 1.09 1.11 1.09 1.18 1.26 1.22 1.12 1.07 1.03 0.97 0.91 0.88 0.89 0.86 0.82 0.88 1.06 1.33 1.69 1.87 1.85 1.73 1.48 1.27
1.10 1.12 1.08 1.12 1.18 1.27 1.33 1.40 1.45 1.44 1.32 1.22 1.17 1.16 1.15 1.19 1.29 1.12 1.04 1.02 1.05 0.98 0.97 0.99 0.99 0.90 0.88 0.81 0.77 0.69 0.66 0.66 0.65 0.66 0.70 0.86 1.07 1.33 1.66 1.82 1.76 1.54 1.28
1.06 1.12 1.10 1.10 1.16 1.21 1.26 1.30 1.30 1.28 1.24 1.21 1.15 1.11 1.09 1.10 1.20 1.05 0.99 0.98 1.01 0.96 0.94 0.98 1.04 0.90 0.76 0.61 0.61 0.64 0.57 0.54 0.56 0.56 0.57 0.62 0.73 0.93 1.27 1.40 1.37 1.32 1.14
0.98 1.03 1.04 1.03 1.04 1.08 1.14 1.13 1.19 1.23 1.20 1.14 1.07 1.05 1.08 1.07 1.06 0.92 0.83 0.79 0.83 0.83 0.79 0.80 0.89 0.86 0.69 0.54 0.54 0.56 0.51 0.49 0.52 0.52 0.53 0.57 0.68 0.81 0.96 1.18 1.23 1.13 1.01
0.98 1.01 0.98 0.98 0.96 0.96 0.95 0.96 1.00 1.03 1.02 1.00 0.99 0.99 1.04 1.03 0.91 0.79 0.68 0.64 0.66 0.69 0.78 0.79 0.88 0.89 0.71 0.59 0.51 0.48 0.41 0.36 0.40 0.47 0.48 0.48 0.54 0.65 0.83 1.04 1.21 1.18 1.06
0.95 1.00 0.97 0.97 0.99 1.02 1.04 1.04 1.03 1.02 1.01 0.98 0.93 0.86 0.85 0.88 0.88 0.73 0.58 0.52 0.55 0.61 0.82 1.03 1.04 0.98 0.82 0.67 0.60 0.56 0.44 0.37 0.40 0.45 0.47 0.46 0.48 0.59 0.83 1.08 1.27 1.38 1.29
0.97 0.92 0.89 0.90 0.90 0.94 1.04 1.07 1.08 1.07 1.03 0.96 0.91 0.86 0.85 0.87 0.86 0.80 0.70 0.61 0.62 0.68 0.85 1.04 1.14 1.16 1.06 0.93 0.83 0.74 0.57 0.52 0.55 0.56 0.57 0.61 0.65 0.76 0.91 1.01 1.15 1.28 1.33
0.95 0.93 0.92 0.89 0.87 0.90 0.95 0.97 0.94 0.95 0.94 0.89 0.84 0.84 0.84 0.86 0.85 0.80 0.72 0.66 0.64 0.68 0.80 1.03 1.22 1.34 1.36 1.31 1.17 1.04 0.91 0.80 0.72 0.72 0.76 0.76 0.77 0.83 0.89 1.01 1.14 1.18 1.15
0.97 0.91 0.87 0.83 0.81 0.82 0.83 0.88 0.95 0.85 0.85 0.80 0.77 0.70 0.67 0.70 0.70 0.61 0.55 0.54 0.55 0.60 0.73 0.95 1.19 1.38 1.44 1.53 1.51 1.40 1.21 1.04 0.95 0.92 0.90 0.88 0.88 0.87 0.90 1.02 1.17 1.22 1.12
0.96 0.88 0.82 0.79 0.79 0.77 0.75 0.78 0.85 0.85 0.77 0.73 0.77 0.70 0.57 0.57 0.53 0.51 0.50 0.49 0.48 0.51 0.66 0.82 0.93 1.08 1.26 1.44 1.52 1.50 1.33 1.18 1.18 1.15 1.06 1.00 1.01 0.98 0.96 1.03 1.16 1.23 1.21
0.83 0.82 0.76 0.72 0.76 0.74 0.72 0.73 0.77 0.82 0.86 0.80 0.76 0.73 0.55 0.46 0.42 0.41 0.41 0.39 0.37 0.40 0.53 0.64 0.72 0.84 1.02 1.27 1.42 1.48 1.40 1.28 1.26 1.27 1.23 1.17 1.15 1.10 1.02 0.99 1.09 1.18 1.20
0.74 0.69 0.65 0.67 0.70 0.70 0.68 0.67 0.69 0.73 0.78 0.76 0.69 0.68 0.57 0.44 0.38 0.37 0.44 0.47 0.46 0.46 0.54 0.59 0.63 0.74 0.89 1.10 1.31 1.45 1.47 1.40 1.33 1.38 1.37 1.27 1.23 1.18 1.07 0.99 1.03 1.15 1.21
0.65 0.73 0.65 0.61 0.61 0.65 0.68 0.69 0.68 0.74 0.78 0.78 0.73 0.70 0.63 0.51 0.47 0.54 0.64 0.71 0.66 0.64 0.66 0.66 0.71 0.80 0.93 1.16 1.35 1.44 1.47 1.44 1.39 1.41 1.39 1.30 1.24 1.21 1.11 1.06 1.06 1.11 1.12
0.60 0.59 0.60 0.52 0.50 0.55 0.59 0.63 0.65 0.70 0.76 0.77 0.71 0.65 0.58 0.54 0.62 0.71 0.82 0.84 0.77 0.73 0.70 0.68 0.70 0.77 0.93 1.13 1.28 1.40 1.43 1.44 1.42 1.38 1.35 1.28 1.23 1.22 1.19 1.15 1.10 1.11 1.15
0.55 0.50 0.49 0.50 0.51 0.52 0.51 0.56 0.59 0.61 0.63 0.67 0.70 0.67 0.63 0.60 0.71 0.80 0.85 0.89 0.88 0.85 0.79 0.76 0.73 0.78 0.87 1.00 1.15 1.28 1.31 1.31 1.33 1.34 1.30 1.25 1.22 1.21 1.24 1.24 1.20 1.18 1.20
0.48 0.47 0.48 0.51 0.54 0.55 0.55 0.56 0.57 0.58 0.62 0.69 0.71 0.72 0.77 0.80 0.84 0.91 0.95 0.95 0.90 0.85 0.80 0.77 0.76 0.78 0.83 0.89 0.99 1.09 1.15 1.18 1.19 1.22 1.27 1.25 1.22 1.20 1.21 1.21 1.20 1.20 1.17
0.43 0.43 0.42 0.45 0.49 0.53 0.54 0.56 0.55 0.54 0.59 0.67 0.74 0.81 0.85 0.88 0.91 0.94 0.92 0.89 0.84 0.79 0.80 0.79 0.79 0.79 0.82 0.88 0.93 0.92 0.93 0.95 0.96 1.00 1.07 1.11 1.12 1.12 1.15 1.14 1.16 1.19 1.22
0.41 0.46 0.45 0.46 0.44 0.47 0.49 0.50 0.51 0.52 0.59 0.69 0.76 0.80 0.83 0.86 0.89 0.85 0.79 0.74 0.70 0.70 0.73 0.73 0.73 0.67 0.64 0.66 0.69 0.70 0.78 0.77 0.78 0.82 0.85 0.89 0.91 0.97 1.02 1.05 1.10 1.19 1.28
0.34 0.43 0.47 0.47 0.44 0.42 0.46 0.47 0.47 0.51 0.56 0.60 0.66 0.69 0.70 0.73 0.77 0.76 0.73 0.71 0.69 0.66 0.66 0.67 0.64 0.58 0.56 0.55 0.53 0.53 0.51 0.49 0.55 0.64 0.69 0.73 0.80 0.90 0.96 0.99 1.04 1.13 1.20